map of LFBC home
LFBC - Airport
Location
City:  Cazaux, Aquitaine, France
ICAO:LFBC

Details
Type:Airport (Aerodrome, Airfield)
Use:Military
Latitude:4432'06"N (44.534883)
Longitude:107'53"W (-1.131449)
Elevation:84 ft (26 m)
Variation:0.13E (WMM2015v2 magnetic declination)
0.16 annual change
Runways:1
Longest:7900 × 148 ft (2408 × 45 m)

Time
Time Zone:UTC+1 (DST+2)
Local Time:

Weather
METAR:LFBC 041400Z AUTO 16004KT 9999 -RA BKN041/// BKN049/// BKN070/// ///TCU 05/03 Q1027
TAF:LFBC 041400Z 0415/0515 18006KT 9999 -RA FEW040 OVC050
TEMPO 0415/0420 4000 RA
BECMG 0417/0419 SCT007 BKN012 OVC020 PROB40
TEMPO 0417/0422 2000 DZRA OVC003
BECMG 0419/0422 BKN006 OVC008
TEMPO 0422/0513 3000 RA OVC003

Related Locations
Nearby:
Farthest:CHT: 12203 mi / 19638 km
Waitangi [Tuuta], CIT, NZ

Find:

   beyond  
but within

Other Information
Maps:
NOTAMs:
Links:
Sources:

  
  • flag of France
  • flag of Aquitaine
  

Sectional Chart

Flight Planning
at skyvector.com

Satellite Image

Google Maps Satellite view

 

Copyright © 2004-2019 Karl L. Swartz. All rights reserved.
The Great Circle Mapper name and logo are trademarks of the Great Circle Mapper.
All other trademarks mentioned herein belong to their respective owners.
Please see credits for attibutions and further copyright information.

  Follow gcmap on Facebook Follow gcmap on Twitter GCmap on LinkedIn

hCard Microformat

Geo Microformat